Benson, MN

3:48 AM CST on January 23, 2017 (GMT -0600)
Benson Municipal

Weather History for KBBB - April, 2013

Change the Weather History Date:

Saturday, April 6, 2013

  Actual Average Record
Temperature  
Mean Temperature 39 °F -  
Max Temperature 46 °F 53 °F 85 °F (1991)
Min Temperature 30 °F 29 °F 5 °F (1979)
Degree Days  
Heating Degree Days 26    
Moisture  
Dew Point 33 °F    
Average Humidity 78    
Maximum Humidity 93    
Minimum Humidity 66    
Precipitation  
Precipitation 0.00 in - - ()
Sea Level Pressure  
Sea Level Pressure 29.65 in    
Wind  
Wind Speed 14 mph (NE)    
Max Wind Speed 21 mph    
Max Gust Speed 31 mph    
Visibility 10 miles    
Events      
Averages and records for this station are not official NWS values.
T = Trace of Precipitation, MM = Missing Value Source: NWS Daily Summary

Daily Weather History Graph

Daily Weather History Graph

Search for Another Location

Airport or City:

Trip Planner

Search our weather history database for the weather conditions in past years. The results will help you decide how hot, cold, wet, or windy it might be!

Date:

Astronomy

Apr. 06, 2013 Rise Set
Actual Time 6:53 AM CDT 7:57 PM CDT
Civil Twilight 6:23 AM CDT 8:27 PM CDT
Nautical Twilight 5:46 AM CDT 9:03 PM CDT
Astronomical Twilight 5:08 AM CDT 9:42 PM CDT
Moon 4:47 AM CDT (4/6) 4:18 PM CDT (4/6)
Length of Visible Light 14h 04m
Length of Day
13h 04m
Waning Crescent, 15% of the Moon is Illuminated
Apr 6
Waning Crescent
Apr 10
New
Apr 18
First Quarter
Apr 25
Full
May 2
Last Quarter

Hourly Weather History & Observations

Time (CDT) Temp. Windchill Dew Point Humidity Pressure Visibility Wind Dir Wind Speed Gust Speed Precip Events Conditions
12:12 AM 37.4 °F 27.8 °F 30.2 °F 75% 29.74 in 10.0 mi SSE 17.3 mph 27.6 mph N/A   Scattered Clouds
12:32 AM 37.4 °F 26.9 °F 30.2 °F 75% 29.73 in 10.0 mi SSE 20.7 mph 31.1 mph N/A   Scattered Clouds
12:53 AM 37.4 °F 27.5 °F 30.2 °F 75% 29.72 in 10.0 mi SE 18.4 mph 29.9 mph N/A   Scattered Clouds
1:12 AM 37.4 °F 27.8 °F 30.2 °F 75% 29.71 in 10.0 mi SSE 17.3 mph 28.8 mph N/A   Clear
1:33 AM 37.4 °F 27.8 °F 30.2 °F 75% 29.71 in 10.0 mi SSE 17.3 mph 24.2 mph N/A   Scattered Clouds
1:52 AM 37.4 °F 28.2 °F 30.2 °F 75% 29.70 in 10.0 mi SE 16.1 mph 27.6 mph N/A   Mostly Cloudy
2:12 AM 37.4 °F 27.5 °F 30.2 °F 75% 29.68 in 10.0 mi SE 18.4 mph 26.5 mph N/A   Mostly Cloudy
2:33 AM 37.4 °F 27.8 °F 30.2 °F 75% 29.67 in 10.0 mi SSE 17.3 mph 23.0 mph N/A   Mostly Cloudy
2:52 AM 37.4 °F 27.5 °F 30.2 °F 75% 29.66 in 10.0 mi SSE 18.4 mph 23.0 mph N/A   Overcast
3:13 AM 37.4 °F 28.2 °F 30.2 °F 75% 29.64 in 10.0 mi SSE 16.1 mph 25.3 mph N/A   Light Drizzle
3:33 AM 39.2 °F 30.8 °F 30.2 °F 70% 29.63 in 10.0 mi SE 15.0 mph 25.3 mph N/A   Mostly Cloudy
3:52 AM 39.2 °F 29.6 °F 30.2 °F 70% 29.62 in 10.0 mi SSE 19.6 mph 24.2 mph N/A   Overcast
4:13 AM 39.2 °F 30.5 °F 30.2 °F 70% 29.60 in 10.0 mi SE 16.1 mph 23.0 mph N/A   Overcast
4:33 AM 39.2 °F 31.2 °F 30.2 °F 70% 29.60 in 10.0 mi SE 13.8 mph - N/A   Overcast
4:52 AM 39.2 °F 31.6 °F 32.0 °F 75% 29.60 in 10.0 mi SSE 12.7 mph 18.4 mph N/A   Overcast
5:13 AM 39.2 °F 30.8 °F 32.0 °F 75% 29.59 in 10.0 mi SE 15.0 mph 19.6 mph N/A   Overcast
5:52 AM 39.2 °F 31.2 °F 32.0 °F 75% 29.58 in 10.0 mi SE 13.8 mph - N/A   Scattered Clouds
6:13 AM 39.2 °F 32.0 °F 33.8 °F 81% 29.58 in 10.0 mi SE 11.5 mph 17.3 mph N/A   Mostly Cloudy
6:32 AM 39.2 °F 32.0 °F 33.8 °F 81% 29.57 in 10.0 mi SE 11.5 mph - N/A   Overcast
6:53 AM 39.2 °F 32.0 °F 33.8 °F 81% 29.56 in 10.0 mi SE 11.5 mph 17.3 mph N/A   Scattered Clouds
7:13 AM 39.2 °F 32.0 °F 33.8 °F 81% 29.56 in 10.0 mi SE 11.5 mph - N/A   Clear
7:32 AM 39.2 °F 32.0 °F 33.8 °F 81% 29.55 in 10.0 mi SE 11.5 mph - N/A   Clear
7:53 AM 39.2 °F 32.0 °F 33.8 °F 81% 29.55 in 10.0 mi SE 11.5 mph 17.3 mph N/A   Clear
8:13 AM 39.2 °F 33.0 °F 33.8 °F 81% 29.55 in 10.0 mi SE 9.2 mph - N/A   Clear
8:32 AM 42.8 °F 37.0 °F 35.6 °F 76% 29.54 in 10.0 mi SE 10.4 mph - N/A   Clear
8:53 AM 42.8 °F 37.0 °F 35.6 °F 76% 29.54 in 10.0 mi SE 10.4 mph - N/A   Clear
9:13 AM 42.8 °F 39.3 °F 35.6 °F 76% 29.54 in 10.0 mi SE 5.8 mph - N/A   Scattered Clouds
9:53 AM 44.6 °F 41.4 °F 35.6 °F 71% 29.54 in 10.0 mi East 5.8 mph - N/A   Clear
10:13 AM 44.6 °F 42.2 °F 35.6 °F 71% 29.55 in 10.0 mi SE 4.6 mph - N/A   Clear
10:32 AM 44.6 °F - 35.6 °F 71% 29.55 in 10.0 mi Calm Calm - N/A   Clear
10:53 AM 46.4 °F 45.2 °F 35.6 °F 66% 29.56 in 10.0 mi ENE 3.5 mph - N/A   Scattered Clouds
11:13 AM 44.6 °F 41.4 °F 35.6 °F 71% 29.56 in 10.0 mi NE 5.8 mph - N/A   Scattered Clouds
11:32 AM 44.6 °F 39.7 °F 35.6 °F 71% 29.57 in 10.0 mi NE 9.2 mph - N/A   Scattered Clouds
11:53 AM 42.8 °F 37.0 °F 35.6 °F 76% 29.58 in 10.0 mi NE 10.4 mph - N/A   Scattered Clouds
12:13 PM 44.6 °F 39.2 °F 35.6 °F 71% 29.59 in 10.0 mi NNE 10.4 mph - N/A   Scattered Clouds
12:32 PM 44.6 °F 38.8 °F 35.6 °F 71% 29.58 in 10.0 mi NNE 11.5 mph - N/A   Scattered Clouds
12:53 PM 42.8 °F 37.5 °F 35.6 °F 76% 29.59 in 10.0 mi NNE 9.2 mph - N/A   Scattered Clouds
1:12 PM 42.8 °F 37.5 °F 35.6 °F 76% 29.60 in 10.0 mi NNE 9.2 mph - N/A   Mostly Cloudy
1:32 PM 42.8 °F 35.8 °F 35.6 °F 76% 29.60 in 10.0 mi North 13.8 mph - N/A   Mostly Cloudy
1:53 PM 42.8 °F 35.8 °F 35.6 °F 76% 29.60 in 10.0 mi North 13.8 mph - N/A   Scattered Clouds
2:12 PM 42.8 °F 35.4 °F 35.6 °F 76% 29.60 in 10.0 mi NNE 15.0 mph - N/A   Scattered Clouds
2:33 PM 44.6 °F 38.1 °F 35.6 °F 71% 29.61 in 10.0 mi NNE 13.8 mph 20.7 mph N/A   Scattered Clouds
2:53 PM 44.6 °F 37.8 °F 35.6 °F 71% 29.61 in 10.0 mi North 15.0 mph 24.2 mph N/A   Scattered Clouds
3:12 PM 44.6 °F 37.4 °F 35.6 °F 71% 29.62 in 10.0 mi North 16.1 mph 20.7 mph N/A   Mostly Cloudy
3:33 PM 44.6 °F 36.4 °F 35.6 °F 71% 29.63 in 10.0 mi North 20.7 mph - N/A   Mostly Cloudy
3:52 PM 42.8 °F 34.0 °F 33.8 °F 70% 29.64 in 10.0 mi North 20.7 mph 26.5 mph N/A   Overcast
4:12 PM 44.6 °F 36.9 °F 35.6 °F 71% 29.64 in 10.0 mi North 18.4 mph 23.0 mph N/A   Mostly Cloudy
4:33 PM 42.8 °F 34.5 °F 35.6 °F 76% 29.65 in 10.0 mi North 18.4 mph 24.2 mph N/A   Mostly Cloudy
4:52 PM 42.8 °F 34.5 °F 35.6 °F 76% 29.66 in 10.0 mi North 18.4 mph 24.2 mph N/A   Overcast
5:12 PM 41.0 °F 31.9 °F 33.8 °F 76% 29.67 in 10.0 mi North 19.6 mph 25.3 mph N/A   Overcast
5:33 PM 39.2 °F 30.2 °F 33.8 °F 81% 29.69 in 10.0 mi North 17.3 mph 25.3 mph N/A   Overcast
5:52 PM 39.2 °F 30.5 °F 33.8 °F 81% 29.70 in 10.0 mi North 16.1 mph - N/A   Overcast
6:13 PM 39.2 °F 31.2 °F 33.8 °F 81% 29.71 in 10.0 mi North 13.8 mph - N/A   Overcast
6:33 PM 37.4 °F 28.5 °F 33.8 °F 87% 29.72 in 10.0 mi North 15.0 mph - N/A   Overcast
6:52 PM 37.4 °F 28.2 °F 33.8 °F 87% 29.72 in 10.0 mi North 16.1 mph 20.7 mph N/A   Overcast
7:13 PM 37.4 °F 29.3 °F 33.8 °F 87% 29.73 in 10.0 mi North 12.7 mph - N/A   Overcast
7:32 PM 37.4 °F 29.8 °F 33.8 °F 87% 29.73 in 10.0 mi North 11.5 mph 18.4 mph N/A   Overcast
7:52 PM 35.6 °F 27.5 °F 33.8 °F 93% 29.74 in 10.0 mi North 11.5 mph - N/A   Overcast
8:12 PM 35.6 °F 27.5 °F 32.0 °F 87% 29.75 in 10.0 mi North 11.5 mph - N/A   Overcast
8:32 PM 35.6 °F 27.5 °F 32.0 °F 87% 29.76 in 10.0 mi NNW 11.5 mph - N/A   Overcast
8:53 PM 33.8 °F 26.4 °F 30.2 °F 87% 29.76 in 10.0 mi North 9.2 mph - N/A   Overcast
9:12 PM 33.8 °F 26.4 °F 32.0 °F 93% 29.77 in 10.0 mi North 9.2 mph - N/A   Overcast
9:32 PM 33.8 °F 25.8 °F 32.0 °F 93% 29.78 in 10.0 mi North 10.4 mph - N/A   Overcast
9:53 PM 33.8 °F 26.4 °F 30.2 °F 87% 29.78 in 10.0 mi North 9.2 mph - N/A   Mostly Cloudy
10:12 PM 33.8 °F 26.4 °F 30.2 °F 87% 29.79 in 10.0 mi NNW 9.2 mph - N/A   Mostly Cloudy
10:32 PM 32.0 °F 24.2 °F 30.2 °F 93% 29.80 in 10.0 mi NNW 9.2 mph - N/A   Mostly Cloudy
10:53 PM 33.8 °F 25.8 °F 30.2 °F 87% 29.81 in 10.0 mi NNW 10.4 mph - N/A   Overcast
11:12 PM 33.8 °F 25.3 °F 30.2 °F 87% 29.81 in 10.0 mi North 11.5 mph - N/A   Overcast
11:32 PM 32.0 °F 23.0 °F 30.2 °F 93% 29.80 in 10.0 mi North 11.5 mph - N/A   Mostly Cloudy
11:53 PM 30.2 °F 22.6 °F 28.4 °F 93% 29.81 in 7.0 mi North 8.1 mph - N/A   Scattered Clouds